This is the latest recevied weather packets stored in our database for station/object G8LMY. If no packets are shown the sender has not sent any weather packets the latest 10 day(s).
| Time | Temp. | Humidity | Pressure | Rain* | Wind** | Luminosity | Snow |
|---|---|---|---|---|---|---|---|
| 1787828153 | 19.44° C | 92% | 1007.2 hPa | 0 mm | - | - | - |
| 1787827253 | 19.44° C | 92% | 1007.2 hPa | 0 mm | - | - | - |
| 1787826353 | 18.89° C | 92% | 1007.2 hPa | 0 mm | - | - | - |
| 1787824553 | 18.89° C | 92% | 1007.1 hPa | 0 mm | - | - | - |
| 1787823653 | 18.33° C | 93% | 1007.1 hPa | 0 mm | - | - | - |
| 1787822754 | 18.33° C | 92% | 1007 hPa | 0 mm | - | - | - |
| 1787821854 | 17.78° C | 92% | 1006.9 hPa | 0 mm | - | - | - |
| 1787820954 | 17.78° C | 92% | 1007.1 hPa | 0.25 mm | - | - | - |
| 1787820055 | 17.78° C | 92% | 1007.2 hPa | 0.25 mm | - | - | - |
| 1787819154 | 17.78° C | 92% | 1007 hPa | 0.51 mm | - | - | - |
| 1787818254 | 17.78° C | 92% | 1007.1 hPa | 1.02 mm | - | - | - |
| 1787817354 | 17.78° C | 92% | 1007.3 hPa | 3.3 mm | - | - | - |
| 1787816454 | 17.78° C | 92% | 1007.3 hPa | 3.3 mm | - | - | - |
| 1787815554 | 17.78° C | 91% | 1007.3 hPa | 3.05 mm | - | - | - |
| 1787814654 | 17.78° C | 91% | 1007.2 hPa | 3.3 mm | - | - | - |
| 1787813754 | 18.33° C | 91% | 1006.9 hPa | 1.27 mm | - | - | - |
| 1787812854 | 18.33° C | 91% | 1006.5 hPa | 1.27 mm | - | - | - |
| 1787811954 | 18.33° C | 90% | 1006.6 hPa | 1.52 mm | - | - | - |
| 1787811054 | 18.33° C | 90% | 1006.9 hPa | 1.02 mm | - | - | - |
| 1787809255 | 18.89° C | 90% | 1007.4 hPa | 0.51 mm | - | - | - |
| 1787808355 | 18.89° C | 90% | 1007.5 hPa | 0.25 mm | - | - | - |
| 1787807455 | 18.89° C | 89% | 1007.3 hPa | 0 mm | - | - | - |
| 1787806555 | 18.89° C | 89% | 1007.2 hPa | 0 mm | - | - | - |
| 1787805655 | 18.89° C | 88% | 1007.3 hPa | 0 mm | - | - | - |
| 1787802955 | 18.89° C | 87% | 1007.3 hPa | 0 mm | - | - | - |
* Rain latest hour (hover to see other rain measurements)
** Current wind speed in m/s (hover to see current wind gust speed)